Weather in Istanbul

Turkey     41˚00′31″N   28˚58′02″E
temp.,
°C
wind,
m/s
gust,
m/s
humid.,
%
clouds,
%
prec.,
mm/h
press.,
hPa
HPBL,
m
3 december, thu
thu300:00+9˚ne3679100 0.0 1024470
03:00+9˚ne358299 0.0 1023420
06:00+10˚ene358589 0.0 1022380
09:00+10˚ene258776 0.1 1022355
12:00+12˚e347553 0.1 1022645
15:00+13˚se126636 0.1 1019618
18:00+12˚ene23754 0.0 1019195
21:00+11˚e46832 0.0 1019251
4 december, fri
fri400:00+11˚ene22840 0.0 101899
03:00+10˚ene12800 0.0 101883
06:00+11˚e23762 0.0 1016112
09:00+11˚ene23695 0.0 1017116
12:00+14˚e23550 0.0 1016157
15:00+16˚e23491 0.0 1014264
18:00+15˚nne236295 0.0 101548
21:00+14˚ene236797 0.0 101561
5 december, sat
sat500:00+13˚ese1167100 0.0 101623
03:00+13˚e1267100 0.0 101623
06:00+12˚ne116875 0.0 101623
09:00+13˚ene116786 0.0 101624
12:00+15˚ne016086 0.0 1017104
15:00+16˚nne115661 0.0 1016256
18:00+15˚n226819 0.0 101664
21:00+14˚nne237110 0.0 101849
6 december, sun
sun600:00+13˚ne23660 0.0 101846
03:00+12˚nne23660 0.0 101844
06:00+12˚ne22670 0.0 101839
09:00+12˚ne22680 0.0 101845
12:00+14˚ne11590 0.0 1018162
15:00+16˚ne12590 0.0 1016308
18:00+14˚ne35720 0.0 1016158
21:00+13˚ene35700 0.0 1016139
7 december, mon
mon700:00+12˚ene24700 0.0 101692
03:00+12˚ene33715 0.0 101747
06:00+12˚e236726 0.0 101641
09:00+13˚e336313 0.0 101656
12:00+15˚ene235342 0.0 1015118
15:00+17˚ene355063 0.0 1014193
18:00+15˚ne236358 0.0 101394
21:00+15˚ene455968 0.0 101482